Location: Esp�n
(42.4593°N, 0.2047°W)
Time: 20:21:45
(UTC+00:00)

Spot 4 Rocket - Visible Passes

Search period start: 25 September 2020 00:00
Search period end: 05 October 2020 00:00
Orbit: 776 x 781 km, 98.7° (Epoch: 25 September)

Date Brightness Start Highest point End Pass type
(mag) Time Alt. Az. Time Alt. Az. Time Alt. Az.
25 Sep 4.6 02:56:22 10° NNE 03:01:00 54° E 03:01:00 54° E visible
25 Sep 5.4 04:36:38 10° NNW 04:40:14 20° WNW 04:41:29 18° W visible
26 Sep 5.8 02:24:06 10° NE 02:27:43 27° E 02:27:43 27° E visible
26 Sep 4.6 04:03:05 10° N 04:07:46 36° WNW 04:08:12 36° W visible
27 Sep 6.7 01:52:48 10° ENE 01:54:26 13° ENE 01:54:26 13° ENE visible
27 Sep 3.9 03:30:01 10° N 03:34:55 71° NW 03:34:55 71° NW visible
28 Sep 4.7 02:57:17 10° NNE 03:01:38 52° ENE 03:01:38 52° ENE visible
28 Sep 5.4 04:37:34 10° NNW 04:41:09 19° WNW 04:42:06 18° WNW visible
29 Sep 5.9 02:25:00 10° NE 02:28:20 26° ENE 02:28:20 26° ENE visible
29 Sep 4.6 04:04:01 10° N 04:08:41 36° WNW 04:08:49 36° WNW visible
30 Sep 6.8 01:53:39 10° ENE 01:55:03 13° ENE 01:55:03 13° ENE visible
30 Sep 4.1 03:30:56 10° N 03:35:32 65° NNW 03:35:32 65° NNW visible
01 Oct 4.8 02:58:11 10° NNE 03:02:14 48° ENE 03:02:14 48° ENE visible
01 Oct 5.4 04:38:31 10° NNW 04:42:04 19° WNW 04:42:43 19° WNW visible
02 Oct 6.0 02:25:54 10° NE 02:28:56 25° ENE 02:28:56 25° ENE visible
02 Oct 4.7 04:04:57 10° N 04:09:25 35° WNW 04:09:25 35° WNW visible
03 Oct 6.8 01:54:31 10° ENE 01:55:38 13° ENE 01:55:38 13° ENE visible
03 Oct 4.2 03:31:51 10° N 03:36:08 58° NNW 03:36:08 58° NNW visible
04 Oct 5.0 02:59:06 10° NNE 03:02:49 44° NE 03:02:49 44° NE visible
04 Oct 5.4 04:39:27 10° NNW 04:42:58 19° WNW 04:43:18 19° WNW visible
